Farmville, Virginia, United States (23901)
Lat: 37.30N, Lon: 78.39W
Wx Zone: VAZ060
Local Info
Past Weather Observations for Today

NOTE: This archive is for the closest National Weather Service station to Farmville. Information may differ from the station used for current weather conditions.

Click here for Long-term Archive

Time Weather Temperature Dewpoint Humidity Pressure Winds Precip Visibility
11:54
Overcast
46°F / 8°C 41°F / 5°C 82% 29.77 in
(1008 mb)
NE 6.9 mph
(NE 11 kph)
- 10SM
10:54
Overcast
46°F / 8°C 43°F / 6°C 87% 29.77 in
(1008 mb)
N 5.8 mph
(N 9 kph)
- 10SM
09:54
Overcast
45°F / 7°C 41°F / 5°C 87% 29.74 in
(1007 mb)
N 5.8 mph
(N 9 kph)
- 10SM
09:36
Overcast
45°F / 7°C 43°F / 6°C 93% 29.74 in
(1007 mb)
Variable 3.5 mph
(Variable 6 kph)
- 10SM
08:54
Overcast
43°F / 6°C 41°F / 5°C 93% 29.74 in
(1007 mb)
N 4.6 mph
(N 7 kph)
0.00 in
(0.00 mm)
10SM
07:54
Overcast
Light Rain
41°F / 5°C 39°F / 4°C 93% 29.71 in
(1006 mb)
NNE 4.6 mph
(NNE 7 kph)
0.01 in
(0.25 mm)
10SM
06:54
Overcast
Light Rain
41°F / 5°C 39°F / 4°C 93% 29.71 in
(1006 mb)
ENE 4.6 mph
(ENE 7 kph)
0.03 in
(0.76 mm)
6SM
06:35
Overcast
Light Rain
41°F / 5°C 39°F / 4°C 93% 29.71 in
(1006 mb)
NE 8.1 mph
(NE 13 kph)
0.02 in
(0.51 mm)
8SM
05:54
Overcast
Light Rain
41°F / 5°C 39°F / 4°C 93% 29.68 in
(1005 mb)
NNE 5.8 mph
(NNE 9 kph)
0.01 in
(0.25 mm)
10SM
04:54
Overcast
Light Rain
39°F / 4°C 39°F / 4°C 100% 29.65 in
(1004 mb)
NNE 8.1 mph
(NNE 13 kph)
0.00 in
(0.00 mm)
10SM
03:54
Overcast
39°F / 4°C 39°F / 4°C 100% 29.62 in
(1003 mb)
NE 11.5 mph
(NE 19 kph)
0.09 in
(2.29 mm)
10SM
03:45
Overcast
Light Rain
39°F / 4°C 39°F / 4°C 100% 29.62 in
(1003 mb)
NNE 12.7 mph
(NNE 20 kph)
0.09 in
(2.29 mm)
10SM
03:36
Overcast
Light Rain
39°F / 4°C 39°F / 4°C 100% 29.62 in
(1003 mb)
NNE 11.5 mph
(NNE 19 kph)
0.09 in
(2.29 mm)
7SM
02:54
Overcast
Light Rain
39°F / 4°C 39°F / 4°C 100% 29.68 in
(1005 mb)
NNE 8.1 mph
(NNE 13 kph)
0.03 in
(0.76 mm)
7SM
02:01
Overcast
Light Rain
39°F / 4°C 39°F / 4°C 100% 29.65 in
(1004 mb)
NNE 8.1 mph
(NNE 13 kph)
0.00 in
(0.00 mm)
10SM
01:54
Overcast
Light Rain
39°F / 4°C 39°F / 4°C 100% 29.65 in
(1004 mb)
N 5.8 mph
(N 9 kph)
0.04 in
(1.02 mm)
10SM
01:47
Overcast
Light Rain
39°F / 4°C 39°F / 4°C 100% 29.65 in
(1004 mb)
NNE 6.9 mph
(NNE 11 kph)
0.04 in
(1.02 mm)
9SM
01:31
Overcast
Light Rain
39°F / 4°C 39°F / 4°C 100% 29.65 in
(1004 mb)
NE 10.4 mph
(NE 17 kph)
0.02 in
(0.51 mm)
7SM
01:15
Overcast
Light Rain
41°F / 5°C 39°F / 4°C 93% 29.68 in
(1005 mb)
Variable 3.5 mph
(Variable 6 kph)
0.00 in
(0.00 mm)
10SM
00:54
Overcast
41°F / 5°C 39°F / 4°C 93% 29.68 in
(1005 mb)
NE 5.8 mph
(NE 9 kph)
- 10SM
00:39
Overcast
41°F / 5°C 39°F / 4°C 93% 29.68 in
(1005 mb)
N 5.8 mph
(N 9 kph)
- 10SM
00:11
Overcast
41°F / 5°C 39°F / 4°C 93% 29.71 in
(1006 mb)
N 4.6 mph
(N 7 kph)
- 10SM
Time Weather Temperature Dewpoint Humidity Pressure Winds Precip Visibility


Weather for websites

WeatherForYou.com, LLC is not responsible for any damages or problems caused by this service. Current weather conditions are obtained from the closest station including government and personal stations which may have varying degrees of accuracy. Weather forecasts are derived from the NOAA NDFD. Like all things, this site belongs to Jesus Christ... He just trusts us to maintain it. If you have any questions or comments email webmaster@weatherforyou.com

Copyright © 2015, WeatherForYou.com LLC. All rights reserved.